Home > Weather > Cincinnati > Past weeks

Flag for USA Past Weather in Cincinnati, Ohio, USA — Yesterday and Last 2 Weeks

Now
80 °F

Sunny.


Feels Like: 82 °F
Forecast: 67 / 83 °F
Wind: 7 mph from South

Location: Cincinnati Municipal Airport Lunken Field

Current Time: May 27, 2016 at 8:14:53 PM

Latest Report: May 27, 2016 at 6:53 PM


Visibility: 10 mi

Pressure: 29.95 "Hg

Humidity: 64%

Dew Point: 67 °F

Location of CincinnatiLocation

Past Weather in Cincinnati — Graph

°F

Cincinnati Temperature Yesterday

Maximum temperature yesterday: 78 °F (at 2:53 PM)
Minimum temperature yesterday: 63 °F (at 1:53 AM)
Average temperature yesterday: 69 °F

High & Low Weather Summary for the Past Weeks

 TemperatureHumidityPressure
High85 °F (May 27, 3:53 PM)100% (May 12, 8:53 PM)30.31 "Hg (May 12, 8:53 PM)
Low32 °F (May 16, 5:53 AM)31% (May 24, 5:53 PM)29.77 "Hg (May 14, 5:53 AM)
Average59 °F76%30.07 "Hg
* Reported May 12 6:53 PM — May 27 6:53 PM, Cincinnati, Weather by CustomWeather, © 2016

Note: Actual official high and low records may vary slightly from our data, if they occured in-between our weather recording intervals... More about our weather records

Advertising

Cincinnati Weather History for the Previous 24 Hours

Scroll right to see more
 ConditionsComfort  
Time TempWeatherWind HumidityBarometerVisibility
6:53 PM
Fri, May 27
80 °FSunny.7 mph64%29.95 "Hg10 mi
5:53 PM83 °FScattered clouds.12 mph57%29.96 "Hg10 mi
4:53 PM84 °FScattered clouds.9 mph57%29.98 "Hg10 mi
3:53 PM85 °FPassing clouds.14 mph55%29.98 "Hg10 mi
2:53 PM83 °FBroken clouds.10 mph61%29.99 "Hg10 mi
1:53 PM83 °FScattered clouds.10 mph61%30.01 "Hg10 mi
12:53 PM82 °FSunny.10 mph63%30.02 "Hg10 mi
11:53 AM78 °FPassing clouds.7 mph71%30.03 "Hg10 mi
10:53 AM76 °FPassing clouds.9 mph80%30.03 "Hg10 mi
9:53 AM72 °FSunny.7 mph84%30.03 "Hg10 mi
8:53 AM67 °FSunny.5 mph97%30.04 "Hg10 mi
7:53 AM62 °FFog.No wind100%30.04 "Hg5 mi
6:53 AM61 °FFog.No wind100%30.03 "Hg0 mi
5:53 AM61 °FFog.No wind100%30.03 "Hg0 mi
4:53 AM60 °FFog.No wind100%30.03 "Hg0 mi
3:53 AM61 °FFog.No wind100%30.02 "Hg1 mi
2:59 AM60 °FFog.No wind100%30.04 "Hg0 mi
2:01 AM62 °FFog.3 mph100%30.04 "Hg2 mi
12:57 AM63 °FFog.No wind100%30.04 "Hg3 mi
11:56 PM
Thu, May 26
63 °FFog.No wind100%30.02 "Hg1 mi
10:53 PM65 °FClear.No wind100%30.01 "Hg10 mi
9:53 PM65 °FClear.3 mph100%30.01 "Hg10 mi
8:53 PM66 °FSunny.3 mph100%29.97 "Hg10 mi
Weather by CustomWeather, © 2016

See weather overviewHow to use our weather pages